GW4042 Weather Reports


time (UTC)temp
C
wind
direction
speed
KPH
gust
KPH
rain 1hr
cm
rain 24hr
cm
rain mn
cm
humidity
%
barometer
mb
20260506164510 11 244 9.7 19.3 0.00 0.00 0.00 90 1019.4
20260506163009 11 205 3.2 11.3 0.00 0.00 0.00 90 1019.7
20260506161506 11 257 6.4 12.9 0.00 0.00 0.00 90 1019.9
20260506160006 11 271 0.0 1.6 0.00 0.00 0.00 90 1019.8
20260506154505 11 222 0.0 0.0 0.00 0.00 0.00 89 1019.6
20260506153021 11 201 0.0 0.0 0.00 0.00 0.00 90 1019.5
20260506151521 11 329 0.0 0.0 0.00 0.00 0.00 90 1019.3
20260506150016 11 281 0.0 0.0 0.00 0.00 0.00 89 1019.2
20260506144513 11 279 0.0 0.0 0.00 0.00 0.00 89 1018.9
20260506143012 11 344 0.0 0.0 0.00 0.00 0.00 90 1019.1
20260506141509 11 290 0.0 0.0 0.00 0.00 0.00 90 1019.0
20260506140016 11 279 0.0 0.0 0.00 0.00 0.00 89 1018.9
20260506134505 10 102 0.0 0.0 0.00 0.00 0.00 90 1018.7
20260506133028 11 229 0.0 0.0 0.00 0.00 0.00 90 1018.6
20260506131518 10 330 0.0 0.0 0.00 0.00 0.00 90 1018.8
20260506130019 10 275 0.0 0.0 0.00 0.00 0.00 90 1018.8
20260506124521 10 175 0.0 0.0 0.00 0.00 0.00 90 1018.9
20260506123015 10 239 0.0 0.0 0.00 0.00 0.00 90 1018.4
20260506121510 10 198 0.0 0.0 0.00 0.00 0.00 90 1018.2
20260506120011 10 92 0.0 0.0 0.00 0.00 0.00 91 1018.0
20260506114536 10 68 0.0 0.0 0.00 0.00 0.00 92 1018.2
20260506113024 10 280 0.0 0.0 0.00 0.00 0.00 92 1018.1
20260506111522 10 276 0.0 0.0 0.00 0.00 0.00 91 1017.9
20260506110027 10 274 0.0 0.0 0.00 0.00 0.00 92 1017.8
20260506104519 10 262 0.0 0.0 0.00 0.00 0.00 92 1017.5
20260506103018 10 287 0.0 0.0 0.00 0.00 0.00 93 1017.3
20260506101518 10 349 0.0 0.0 0.00 0.00 0.00 93 1017.3
20260506100026 10 130 0.0 0.0 0.00 0.00 0.00 94 1017.3
20260506094526 9 190 0.0 0.0 0.00 0.00 0.00 93 1017.2
20260506093024 9 112 0.0 0.0 0.00 0.00 0.00 93 1017.3
20260506091522 10 62 0.0 0.0 0.00 0.00 0.00 93 1017.1
20260506090004 10 78 0.0 0.0 0.00 0.00 0.00 93 1017.1
20260506084519 10 60 0.0 0.0 0.00 0.00 0.00 92 1017.0
20260506083018 10 96 0.0 0.0 0.00 0.00 0.00 92 1016.8
20260506081518 10 96 0.0 0.0 0.00 0.00 0.00 91 1017.0
20260506073008 10 170 0.0 0.0 0.00 0.00 0.00 91 1016.6
20260506071506 10 97 0.0 0.0 0.00 0.00 0.00 91 1016.4
20260506041528 13 118 0.0 0.0 0.00 0.00 0.00 84 1015.4
20260506034512 14 37 1.6 8.0 0.00 0.00 0.00 81 1015.1
20260506033012 15 20 0.0 6.4 0.00 0.00 0.00 80 1014.7
20260506031532 16 331 0.0 4.8 0.00 0.00 0.00 77 1014.8
20260506030046 16 39 1.6 11.3 0.00 0.00 0.00 75 1014.7
20260506024529 17 248 0.0 9.7 0.00 0.00 0.00 74 1014.9
20260506023023 17 283 4.8 20.9 0.00 0.00 0.00 74 1014.9
20260506021520 17 244 8.0 24.1 0.00 0.00 0.00 72 1014.7
20260506020020 17 245 11.3 22.5 0.00 0.00 0.00 72 1014.6
20260506014528 17 258 8.0 20.9 0.00 0.00 0.00 72 1014.5
20260506013011 17 255 9.7 19.3 0.00 0.00 0.00 71 1014.6
20260506011534 17 267 9.7 24.1 0.00 0.00 0.00 72 1014.6
20260506010026 17 265 9.7 17.7 0.00 0.00 0.00 72 1014.6
20260506004542 17 293 6.4 17.7 0.00 0.00 0.00 72 1014.6
20260506003032 17 247 14.5 24.1 0.00 0.00 0.00 72 1014.6
20260506001523 17 252 9.7 22.5 0.00 0.00 0.00 71 1014.8
20260506000006 17 192 6.4 16.1 0.00 0.00 0.00 71 1014.9
20260505234503 17 250 4.8 16.1 0.00 0.00 0.00 73 1015.0
20260505233002 17 127 9.7 17.7 0.00 0.00 0.00 73 1015.2
20260505231504 17 257 4.8 17.7 0.00 0.00 0.00 73 1015.4
20260505230003 16 52 3.2 19.3 0.00 0.00 0.00 74 1015.4
20260505224504 16 206 4.8 20.9 0.00 0.00 0.00 74 1015.5
20260505223004 16 262 3.2 19.3 0.00 0.00 0.00 76 1015.7
20260505221504 16 253 1.6 19.3 0.00 0.00 0.00 76 1015.8
20260505220005 16 110 1.6 24.1 0.00 0.00 0.00 77 1015.9
20260505214503 16 175 4.8 17.7 0.00 0.00 0.00 76 1016.0
20260505213007 16 265 8.0 19.3 0.00 0.00 0.00 76 1016.0
20260505211506 16 235 6.4 17.7 0.00 0.00 0.00 77 1016.0
20260505210004 15 88 9.7 27.4 0.00 0.00 0.00 78 1016.2
20260505204505 15 236 9.7 22.5 0.00 0.00 0.00 78 1016.1
20260505203018 15 246 12.9 19.3 0.00 0.00 0.00 78 1016.2
20260505201503 15 242 16.1 24.1 0.00 0.00 0.00 79 1016.2
20260505200005 15 248 6.4 17.7 0.00 0.00 0.00 79 1016.3
20260505194504 14 247 14.5 24.1 0.00 0.00 0.00 81 1016.3
20260505191509 14 226 4.8 12.9 0.00 0.00 0.00 82 1016.3
20260505190009 13 223 6.4 16.1 0.00 0.00 0.00 82 1016.3
20260505184514 13 251 8.0 19.3 0.00 0.00 0.00 82 1016.2
20260505183010 13 288 4.8 16.1 0.00 0.00 0.00 82 1016.2
20260505181509 13 275 3.2 14.5 0.00 0.00 0.00 83 1016.2
20260505180007 13 234 1.6 11.3 0.00 0.00 0.00 84 1016.1
20260505174510 13 229 4.8 17.7 0.00 0.00 0.00 85 1016.1
20260505173010 13 205 3.2 12.9 0.00 0.00 0.00 85 1016.0
20260505171511 12 211 1.6 14.5 0.00 0.00 0.00 86 1015.9
20260505170017 12 232 1.6 8.0 0.00 0.00 0.00 86 1015.9